Weather reports worldwide

Advertisment
Girona/Costa Brava, Spain (8184): temperature & dewpoint: 14.01.2021 13:00:00 - 20.01.2021 13:00:00 (CET)Girona/Costa Brava, Spain (8184): wind speed: 14.01.2021 13:00:00 - 20.01.2021 13:00:00 (CET)Girona/Costa Brava, Spain (8184): wind direction: 14.01.2021 13:00:00 - 20.01.2021 13:00:00 (CET)Girona/Costa Brava, Spain (8184): reduced air pressure: 14.01.2021 13:00:00 - 20.01.2021 13:00:00 (CET)Girona/Costa Brava, Spain (8184): visibility: 14.01.2021 13:00:00 - 20.01.2021 13:00:00 (CET)
Date & Time tt [°C] td [°C] ff [km/h] ff [kn] dd ppp [hPa] vv [km]
20.01.2021 13:00:00 12,9 7,2 31 17 SSW 1011,5 30
20.01.2021 12:00:00 12,3 8,0 39 21 SSW 1012,9 -
20.01.2021 11:00:00 12,6 7,6 29 16 SSW 1013,4 -
20.01.2021 10:00:00 11,0 7,7 - - - 1013,8 30
20.01.2021 09:00:00 9,1 6,4 21 11 SSW 1014,0 -
20.01.2021 08:00:00 7,7 5,6 11 6 SSW 1014,3 -
20.01.2021 07:00:00 6,2 5,0 11 6 SW 1015,0 10
20.01.2021 06:00:00 4,0 2,7 13 7 WSW 1015,4 -
20.01.2021 05:00:00 6,6 5,1 18 10 SSW 1015,8 -
20.01.2021 04:00:00 5,3 4,1 13 7 SW 1016,5 10
20.01.2021 03:00:00 6,8 5,1 11 6 SW 1017,0 -
20.01.2021 02:00:00 6,7 5,0 13 7 SW 1017,2 -
20.01.2021 01:00:00 6,8 5,3 21 11 SSW 1018,3 20
20.01.2021 00:00:00 7,2 6,0 22 12 SSW 1018,8 -
19.01.2021 23:00:00 7,8 6,6 22 12 SSW 1019,2 -
19.01.2021 22:00:00 8,0 6,8 8 4 SW 1019,4 -
19.01.2021 21:00:00 7,6 6,2 0 0 N 1019,7 -
19.01.2021 20:00:00 8,5 7,3 22 12 SSW 1020,0 -
19.01.2021 19:00:00 9,1 7,5 16 9 S 1020,0 60
19.01.2021 18:00:00 10,5 7,4 16 9 S 1019,6 -
19.01.2021 17:00:00 13,4 6,0 24 13 SSW 1019,6 -
19.01.2021 16:00:00 14,9 6,5 18 10 SSW 1019,7 -
19.01.2021 15:00:00 15,4 6,1 21 11 SSW 1020,0 -
19.01.2021 14:00:00 14,5 5,9 9 5 S 1021,0 -
19.01.2021 13:00:00 12,1 5,1 4 2 S 1022,6 -
19.01.2021 12:00:00 10,1 4,5 4 2 S 1023,9 -
19.01.2021 11:00:00 6,2 3,7 2 1 SSW 1024,7 -
19.01.2021 10:00:00 2,6 1,6 0 0 N 1025,1 -
19.01.2021 09:00:00 -1,5 -1,6 0 0 N 1025,2 -
19.01.2021 08:00:00 -2,6 -2,7 0 0 N 1025,4 -
19.01.2021 07:00:00 -2,6 -2,7 0 0 N 1025,3 -
19.01.2021 06:00:00 -2,1 -2,2 0 0 N 1025,1 -
19.01.2021 05:00:00 -1,7 -1,8 4 2 NNE 1025,2 -
19.01.2021 04:00:00 -1,7 -2,0 4 2 NNW 1025,6 -
19.01.2021 03:00:00 -1,2 -1,5 2 1 WSW 1025,9 -
19.01.2021 02:00:00 -0,9 -1,2 0 0 N 1026,1 -
19.01.2021 01:00:00 -0,1 -0,5 0 0 N 1026,6 -
19.01.2021 00:00:00 1,3 1,0 5 3 W 1026,9 -
18.01.2021 23:00:00 2,1 1,8 0 0 N 1027,0 -
18.01.2021 22:00:00 1,5 1,1 0 0 N 1027,1 -
18.01.2021 21:00:00 3,4 2,8 0 0 N 1027,2 -
18.01.2021 20:00:00 4,5 3,5 0 0 N 1027,1 -
18.01.2021 19:00:00 6,7 4,2 5 3 SSW 1026,6 20
18.01.2021 18:00:00 7,4 4,7 11 6 S 1026,1 -
18.01.2021 17:00:00 11,3 5,4 11 6 SSW 1025,5 -
18.01.2021 16:00:00 11,8 4,3 2 1 SW 1025,5 -
18.01.2021 15:00:00 13,5 3,5 4 2 S 1025,6 -
18.01.2021 14:00:00 12,4 1,7 5 3 SE 1026,0 -
18.01.2021 13:00:00 11,2 3,6 2 1 ESE 1026,5 20
18.01.2021 12:00:00 8,6 4,4 0 0 N 1027,6 -
18.01.2021 11:00:00 5,8 3,5 0 0 N 1028,0 -
18.01.2021 10:00:00 2,8 2,2 0 0 N 1027,6 -
18.01.2021 09:00:00 0,6 0,2 5 3 NE 1027,2 -
18.01.2021 08:00:00 0,1 -0,2 5 3 NE 1026,7 -
18.01.2021 07:00:00 0,3 -0,3 5 3 W 1026,5 10
18.01.2021 06:00:00 0,8 -0,1 2 1 NNE 1026,2 -
18.01.2021 05:00:00 1,7 0,6 0 0 N 1025,6 -
18.01.2021 04:00:00 3,6 1,6 8 4 W 1025,6 10
18.01.2021 03:00:00 4,6 1,8 9 5 NNW 1025,7 -
18.01.2021 02:00:00 4,7 1,7 8 4 NNW 1025,8 -
18.01.2021 01:00:00 3,3 1,3 2 1 NE 1026,2 10
18.01.2021 00:00:00 4,4 1,4 5 3 NNE 1025,8 -
17.01.2021 23:00:00 6,0 2,3 5 3 NNW 1025,4 -
17.01.2021 22:00:00 6,5 2,9 5 3 NW 1025,0 10
17.01.2021 21:00:00 7,6 3,8 13 7 N 1023,9 -
17.01.2021 20:00:00 8,2 4,4 8 4 N 1023,5 -
17.01.2021 19:00:00 8,5 5,2 9 5 NE 1022,5 10
17.01.2021 18:00:00 11,6 2,3 4 2 SE 1021,1 -
17.01.2021 17:00:00 16,1 2,9 4 2 SW 1020,0 -
17.01.2021 16:00:00 16,5 2,5 11 6 SW 1019,7 75
17.01.2021 15:00:00 16,6 2,1 8 4 WSW 1019,9 -
17.01.2021 14:00:00 16,2 0,4 8 4 SSW 1020,0 -
17.01.2021 13:00:00 14,8 2,0 8 4 S 1020,7 75
17.01.2021 12:00:00 11,5 4,4 2 1 SSE 1021,8 -
17.01.2021 11:00:00 8,7 3,9 4 2 S 1022,2 -
17.01.2021 10:00:00 4,8 2,7 0 0 N 1022,7 -
17.01.2021 09:00:00 1,1 0,5 8 4 NE 1022,5 -
17.01.2021 08:00:00 1,1 0,4 4 2 E 1022,3 -
17.01.2021 07:00:00 -0,1 -0,4 9 5 WNW 1022,3 -
17.01.2021 06:00:00 -1,0 -1,4 2 1 NW 1021,9 -
17.01.2021 05:00:00 -0,6 -1,2 0 0 N 1022,6 -
17.01.2021 04:00:00 0,0 -0,4 0 0 N 1023,0 -
17.01.2021 03:00:00 -0,4 -0,9 8 4 NNE 1023,3 -
17.01.2021 02:00:00 0,0 -0,6 0 0 N 1023,6 -
17.01.2021 01:00:00 1,3 0,6 0 0 N 1024,1 -
17.01.2021 00:00:00 1,9 0,5 4 2 NE 1024,7 -
16.01.2021 23:00:00 2,5 1,3 0 0 N 1025,0 -
16.01.2021 22:00:00 2,4 0,9 5 3 NE 1025,3 -
16.01.2021 21:00:00 5,2 1,7 5 3 WSW 1024,8 -
16.01.2021 20:00:00 7,6 2,1 2 1 SSW 1025,2 -
16.01.2021 19:00:00 8,6 2,8 5 3 WSW 1025,0 -
16.01.2021 18:00:00 10,0 2,5 4 2 SSE 1024,6 -
16.01.2021 17:00:00 12,4 3,7 4 2 SW 1023,9 -
16.01.2021 16:00:00 14,3 2,4 0 0 N 1023,3 -
16.01.2021 15:00:00 14,1 2,1 0 0 N 1023,2 -
16.01.2021 14:00:00 13,3 2,1 5 3 SW 1023,2 -
16.01.2021 13:00:00 12,0 3,2 2 1 ENE 1023,8 -
16.01.2021 12:00:00 10,3 3,6 0 0 N 1024,6 -
16.01.2021 11:00:00 7,5 2,8 0 0 N 1025,0 -
16.01.2021 10:00:00 3,1 1,4 0 0 N 1024,8 -
16.01.2021 09:00:00 -0,6 -0,9 0 0 N 1024,4 -
16.01.2021 08:00:00 -2,4 -2,8 0 0 N 1023,8 -
16.01.2021 07:00:00 -1,7 -2,3 4 2 SSE 1023,5 -
16.01.2021 06:00:00 -0,1 -0,5 5 3 WNW 1022,8 -
16.01.2021 05:00:00 0,1 -0,5 5 3 W 1022,2 -
16.01.2021 04:00:00 0,7 -0,5 2 1 S 1021,9 -
16.01.2021 03:00:00 3,6 1,6 8 4 NW 1021,5 -
16.01.2021 02:00:00 4,2 1,1 11 6 NNW 1021,6 -
16.01.2021 01:00:00 4,1 2,3 4 2 N 1021,3 2,0
16.01.2021 00:00:00 4,6 2,8 0 0 N 1021,2 -
15.01.2021 23:00:00 4,6 2,3 5 3 WNW 1020,8 -
15.01.2021 22:00:00 3,4 1,4 0 0 N 1020,5 -
15.01.2021 21:00:00 4,8 3,5 2 1 ENE 1020,3 -
15.01.2021 20:00:00 5,6 3,4 4 2 W 1020,1 -
15.01.2021 19:00:00 6,6 3,6 0 0 N 1020,3 -
15.01.2021 18:00:00 9,0 4,6 5 3 SSW 1020,0 -
15.01.2021 17:00:00 12,1 5,0 11 6 SSW 1019,7 -
15.01.2021 16:00:00 13,8 4,1 11 6 S 1019,4 60
15.01.2021 15:00:00 14,3 3,6 8 4 S 1019,2 -
15.01.2021 14:00:00 13,8 3,7 15 8 S 1019,1 -
15.01.2021 13:00:00 12,9 3,3 4 2 SSE 1020,4 60
15.01.2021 12:00:00 10,1 3,3 2 1 N 1021,2 -
15.01.2021 11:00:00 6,8 2,1 4 2 SW 1021,4 -
15.01.2021 10:00:00 2,8 0,4 15 8 E 1021,3 -
15.01.2021 09:00:00 -0,5 -1,2 8 4 ENE 1021,2 -
15.01.2021 08:00:00 -1,5 -2,1 0 0 N 1020,9 -
15.01.2021 07:00:00 -1,6 -2,0 8 4 WNW 1020,2 -
15.01.2021 06:00:00 -1,5 -1,9 4 2 NW 1020,3 -
15.01.2021 05:00:00 -1,7 -2,1 0 0 N 1020,3 -
15.01.2021 04:00:00 -1,8 -2,4 4 2 NE 1020,6 -
15.01.2021 03:00:00 -0,6 -1,2 5 3 SSW 1020,2 -
15.01.2021 02:00:00 -1,2 -1,9 0 0 N 1020,1 -
15.01.2021 01:00:00 -0,1 -0,7 5 3 W 1020,2 10
15.01.2021 00:00:00 -0,1 -1,2 0 0 N 1020,6 -
14.01.2021 23:00:00 0,6 -0,9 4 2 WSW 1020,5 -
14.01.2021 22:00:00 2,1 -0,1 0 0 N 1020,4 10
14.01.2021 21:00:00 4,0 0,5 8 4 WNW 1020,4 -
14.01.2021 20:00:00 4,8 0,6 0 0 N 1020,9 -
14.01.2021 19:00:00 5,4 1,3 9 5 NW 1020,7 -
14.01.2021 18:00:00 7,7 3,2 4 2 WNW 1020,4 -
14.01.2021 17:00:00 11,6 5,7 13 7 SSW 1019,8 -
14.01.2021 16:00:00 13,6 5,3 8 4 SSW 1019,9 -
14.01.2021 15:00:00 13,8 3,9 5 3 S 1020,3 -
14.01.2021 14:00:00 13,3 4,0 4 2 S 1020,8 -
14.01.2021 13:00:00 12,6 2,7 0 0 N 1022,0 -

tt = temperature
td = dewpoint
ff = wind speed
dd = wind direction
ppp = reduced air pressure
vv = visibility

Next stations